KE0YON Weather Reports


time (UTC)temp
C
wind
direction
speed
KPH
gust
KPH
rain 1hr
cm
rain 24hr
cm
rain mn
cm
humidity
%
barometer
mb
20260505193041 6 105 19.3 30.6 0.00 0.00 0.00 70 1012.8
20260505190029 6 125 19.3 27.4 0.00 0.00 0.00 72 1013.1
20260505184525 6 124 20.9 33.8 0.00 0.00 0.00 72 1013.3
20260505183039 6 105 17.7 27.4 0.00 0.00 0.00 73 1013.3
20260505181526 6 99 20.9 27.4 0.00 0.00 0.00 74 1013.4
20260505180032 6 111 17.7 30.6 0.00 0.00 0.00 75 1013.8
20260505174531 6 89 17.7 30.6 0.00 0.00 0.00 75 1013.8
20260505173034 6 98 17.7 25.7 0.00 0.00 0.00 77 1013.8
20260505171530 6 97 20.9 27.4 0.00 0.00 0.00 76 1013.9
20260505170025 6 106 17.7 25.7 0.00 0.00 0.00 76 1013.9
20260505164531 6 94 17.7 24.1 0.00 0.00 0.00 75 1014.1
20260505163023 6 117 11.3 20.9 0.00 0.00 0.00 76 1014.0
20260505161525 6 86 11.3 22.5 0.00 0.00 0.00 76 1014.0
20260505153028 6 105 17.7 27.4 0.00 0.00 0.00 76 1014.1
20260505123019 7 97 8.0 16.1 0.00 0.00 0.00 70 1012.6
20260505121524 7 105 8.0 17.7 0.00 0.00 0.00 69 1012.3
20260505120033 7 113 8.0 14.5 0.00 0.00 0.00 68 1012.0
20260505114534 8 102 4.8 8.0 0.00 0.00 0.00 68 1011.6
20260505113010 7 125 4.8 9.7 0.00 0.00 0.00 67 1011.8
20260505111518 7 98 3.2 4.8 0.00 0.00 0.00 66 1011.5
20260505101515 8 83 1.6 8.0 0.00 0.00 0.00 67 1011.9
20260505100016 8 27 8.0 9.7 0.00 0.00 0.00 66 1011.6
20260505094524 8 28 4.8 9.7 0.00 0.00 0.00 67 1011.7
20260505093027 8 19 9.7 12.9 0.00 0.00 0.00 67 1011.8
20260505091530 8 22 8.0 11.3 0.00 0.00 0.00 66 1011.6
20260505090026 9 32 6.4 11.3 0.00 0.00 0.00 66 1011.7
20260505084520 10 36 9.7 14.5 0.00 0.00 0.00 64 1011.7
20260505083025 10 34 11.3 17.7 0.00 0.00 0.00 63 1011.7
20260505081536 10 19 12.9 17.7 0.00 0.00 0.00 64 1011.7
20260505080045 10 9 12.9 19.3 0.00 0.00 0.00 64 1011.7
20260505074514 10 4 12.9 19.3 0.00 0.00 0.00 64 1011.6
20260505073020 10 360 16.1 20.9 0.00 0.00 0.00 64 1011.6
20260505071525 11 27 12.9 22.5 0.00 0.00 0.00 62 1011.3
20260505070024 11 25 20.9 25.7 0.00 0.00 0.00 61 1011.1
20260505064528 11 25 14.5 20.9 0.00 0.00 0.00 59 1011.2
20260505063017 11 342 16.1 25.7 0.00 0.00 0.00 59 1011.4
20260505061524 12 347 20.9 32.2 0.00 0.00 0.00 57 1011.2
20260505060026 12 33 24.1 32.2 0.00 0.00 0.00 57 1011.5
20260505054524 12 356 25.7 32.2 0.00 0.00 0.00 56 1011.5
20260505053028 12 23 25.7 30.6 0.00 0.00 0.00 55 1011.2
20260505051523 12 22 17.7 27.4 0.00 0.00 0.00 54 1011.2
20260505041545 13 9 20.9 33.8 0.00 0.00 0.00 53 1011.1
20260505040027 13 31 27.4 43.5 0.00 0.00 0.00 51 1010.9
20260505033027 13 20 35.4 49.9 0.00 0.00 0.00 49 1009.8
20260505031524 14 352 38.6 51.5 0.00 0.00 0.00 48 1009.8
20260505030035 14 350 40.2 56.3 0.00 0.00 0.00 47 1009.2
20260505021528 15 355 43.5 62.8 0.00 0.00 0.00 43 1008.6
20260505020029 16 338 40.2 62.8 0.00 0.00 0.00 41 1008.3
20260505014526 17 6 43.5 61.2 0.00 0.00 0.00 37 1008.0
20260505011530 17 35 29.0 37.0 0.00 0.00 0.00 35 1007.0
20260505010026 18 9 25.7 38.6 0.00 0.00 0.00 33 1006.7
20260505004530 18 9 29.0 43.5 0.00 0.00 0.00 30 1006.6
20260505001524 20 61 25.7 40.2 0.00 0.00 0.00 28 1006.3
20260505000011 20 34 29.0 51.5 0.00 0.00 0.00 27 1006.2
20260504234516 20 35 27.4 45.1 0.00 0.00 0.00 26 1006.1
20260504233021 20 4 40.2 53.1 0.00 0.00 0.00 25 1006.2
20260504231525 21 348 35.4 45.1 0.00 0.00 0.00 25 1006.2
20260504230024 22 300 27.4 38.6 0.00 0.00 0.00 18 1005.9
20260504224513 23 292 33.8 53.1 0.00 0.00 0.00 19 1005.6
20260504223018 23 284 30.6 38.6 0.00 0.00 0.00 18 1005.5
20260504220024 23 276 24.1 37.0 0.00 0.00 0.00 19 1006.1
20260504214525 23 269 25.7 46.7 0.00 0.00 0.00 18 1006.2
20260504204524 23 243 35.4 54.7 0.00 0.00 0.00 21 1006.4
20260504203024 23 225 33.8 48.3 0.00 0.00 0.00 19 1006.8